{"data":{"norad_id":57344,"intl_designator":"2023-099S","name":"STARLINK-6380","alt_names":[],"object_type":"PAYLOAD","status":"ACTIVE","operator":null,"country":"US","launch_date":"2023-07-16","launch_site_code":"AFETR","launch_vehicle":null,"mission":null,"orbit_class":"UNKNOWN","rcs_meters":null,"size_class":null,"mass_kg":null,"dimensions":null,"purposes":["comms"],"wikipedia_slug":null,"has_3d_model":false,"image_url":null,"decayed_at":null,"tle_current":{"epoch":"2026-09-20T15:12:14.002560Z","epoch_age_seconds":112796,"freshness":"FRESH","line1":"1 57344U 23099S   26263.63349540  .00000013  00000+0  99885-5 0  9996","line2":"2 57344  43.0042 231.1912 0000893 332.5318  27.5487 15.27575621175896","mean_motion":15.27575621,"eccentricity":8.93e-5,"inclination_deg":43.0042,"raan_deg":231.1912,"arg_perigee_deg":332.5318,"mean_anomaly_deg":27.5487,"bstar":9.9885e-6,"rev_number":17589,"period_min":94.267018941905,"perigee_km":482.449503283,"apogee_km":483.67491346162,"semimajor_km":6861.1992083723,"source":"CELESTRAK","updated_at":"2026-09-21T09:00:33.599144Z"}}}